sat.trackr.live / text

‹ back to catalog

STARLINK-34725

NORAD 64843 · 2025-152B

PAYLOAD ACTIVE UNKNOWN

§ Identity

Operator
Country
US
Launch date
2025-07-19
Launch site
AFWTR
Launch vehicle
Mass (kg)
RCS (m²)

Purposes: comms

External: N2YO · Heavens-Above · Gunter

§ Orbital elements

Epoch: 2026-05-25T02:28:26.237280Z

Period
95.64 min
Inclination
97.4520°
Eccentricity
0.0002203
Mean motion
15.05658805 rev/d
Perigee alt
548.0 km
Apogee alt
551.0 km
Semi-major
6,927.6 km
B*
2.4707e-4
RAAN
0.4259°
Arg perigee
82.8156°
Mean anomaly
277.3322°
Rev number
4,691

§ Raw data

STARLINK-347251 64843U 25152B   26145.10308145  .00003509  00000+0  24707-3 0  99992 64843  97.4520   0.4259 0002203  82.8156 277.3322 15.05658805 46910

JSON: /api/v1/satellites/64843 · /tle

For live sub-satellite position, see the globe view (requires WebGL).

§ Visibility from observer

Set your observer location to see the next 7 days of passes ≥ 10°. The values pass through the URL so the page stays shareable.

No JS? Fill the form by hand. The geolocation button needs JavaScript.